Regional Weather Roundup
Issued by NWS Grand Forks, ND

Home | Current Version | Previous Version | Text Only | Print | Product List | Glossary Off
Versions: 1 2 3 4 5 6 7 8 9 10 11 12 13 14 15 16 17 18 19 20 21 22 23 24 25 26 27 28 29 30 31 32 33 34 35 36 37 38 39 40 41 42 43 44 45 46 47 48 49 50

000
ASUS43 KFGF 091031
RWRFGF
PRAIRIE TO PINES  WEATHER ROUNDUP
NATIONAL WEATHER SERVICE EASTERN NORTH DAKOTA/GRAND FORKS ND
400 AM CST FRI DEC 09 2016

 **SATELLITE DATA USED TO AUGMENT SKY COVER AT AUTOMATED STATIONS**
 *****  WEATHER ACROSS EASTERN NORTH DAKOTA  *****

CITY           SKY/WX    TMP DP  RH WIND       PRES   REMARKS
GRAND FORKS    CLOUDY     7   0  73 NW10      30.57F WCI  -8
GRAND FRKS AFB CLOUDY     5  -2  72 NW8       30.57S WCI  -8
DEVILS LAKE    FLURRIES  -6  -9  86 NW10      30.54F WCI -24
FARGO          CLOUDY     8   1  73 W8        30.58F WCI  -4
WAHPETON ARPT  CLOUDY     3  -2  78 W8        30.59F WCI -10
$$

 ***** WEATHER ACROSS CENTRAL AND WESTERN NORTH DAKOTA  *****

CITY           SKY/WX    TMP DP  RH WIND       PRES   REMARKS
BISMARCK       CLOUDY   -11 -15  82 W3        30.56F
MINOT          CLOUDY   -10 -15  78 W6        30.54S WCI -23
JAMESTOWN      PTCLDY    -7 -11  83 W6        30.53F WCI -20
MINOT AFB      CLOUDY   -13 -18  79 NW10      30.54F WCI -33
GARRISON         N/A    -15 -19  82 N7        30.53S WCI -31
WILLISTON      CLOUDY   -16 -21  78 CALM      30.56S
DICKINSON      CLOUDY   -18 -21  87 NW3       30.43F
HETTINGER      CLOUDY   -18 -22  82 CALM      30.43F
$$

 *****  OTHER AIRPORT OBSERVATIONS IN OUR AREA  *****

CITY           SKY/WX    TMP DP  RH WIND       PRES   REMARKS
WALHALLA         N/A      3   3 100 NW7       30.58S WCI  -9
GRAFTON AIRPOR CLOUDY     7   0  72 NW12      30.59S WCI  -9
VALLEY CITY AR CLOUDY    -2  -4  92 NW7       30.55F WCI -16
CANDO          FAIR      -9 -13  84 NW7       30.56S WCI -24
CAVALIER APRT    N/A      5   1  85 N10       30.57S WCI -10
GWINNER        FAIR      -2  -6  84 W10       30.56F WCI -19
SHEYENNE NWR     N/A      0  -8  70 NW6       29.95  WCI -12
ROLLA          FAIR     -11 -15  84 NW5       30.50S WCI -23
 ***** THE ABOVE OBSERVATIONS ARE NON NWS ARE NOT QUALITY
       CONTROLLED AND MAY MIS-REPORT RAIN FOR SNOW...
$$

  *****  WEATHER ACROSS NORTHERN MINNESOTA  *****

CITY           SKY/WX    TMP DP  RH WIND       PRES   REMARKS
FLAG ISLAND    CLOUDY     3  -2  78 W12       30.50S WCI -13
WARROAD        CLOUDY     3  -2  78 NW10      30.52F WCI -12
ROSEAU         CLOUDY     5   0  78 NW3       30.53S
HALLOCK        CLOUDY     7   1  78 N8        30.56F WCI  -6
THF RVR FALLS  FLURRIES   6   2  83 NW5       30.55S WCI  -3
BAUDETTE       CLOUDY     4  -4  69 NW13      30.49F WCI -13
WASKISH        CLOUDY     5   1  85 NW7       30.50S WCI  -7
CROOKSTON      FLURRIES   9   3  78 NW10      30.57S WCI  -6
STEPHEN NDAWN    N/A      9   3  78 NW7         N/A  WCI  -3
GREENBUSH NDAW   N/A      5   1  85 NW5         N/A  WCI  -4
$$
  *****  WEATHER ACROSS CENTRAL AND WEST MINNESOTA  *****

CITY           SKY/WX    TMP DP  RH WIND       PRES   REMARKS
FOSSTON        CLOUDY     3   0  85 CALM      30.52F
BEMIDJI        CLOUDY     4   0  83 NW5       30.49F FOG     WCI  -5
PARK RAPIDS    CLOUDY     8   1  73 W8        30.49S WCI  -4
ELBOW LAKE     LGT SNOW   3   0  86 NW8       30.56F WCI -10
WADENA         FLURRIES   7   3  85 W6        30.50F WCI  -3
DETROIT LAKES  CLOUDY     7   5  92 W7        30.52F WCI  -5
MOORHEAD       MIX PCPN   7   1  78 W7        30.57F WCI  -5
FERGUS FALLS   FLURRIES   3   0  85 W6        30.61F WCI  -8
MORRIS MN      FLURRIES   3  -2  78 NW9       30.56F WCI -11
STAPLES        FLURRIES   9   5  85 NW5       30.50F WCI   0
$$
  *****  WEATHER ELSEWHERE ACROSS MINNESOTA  *****

CITY           SKY/WX    TMP DP  RH WIND       PRES   REMARKS
DULUTH         FLURRIES  12   6  77 NW8       30.43R WCI   0
INTRNTL FALLS  CLOUDY     9   4  80 W9        30.46S WCI  -4
ELY            LGT SNOW  10   7  85 W5        30.40F WCI   2
CLOQUET        LGT SNOW  12   9  85 NW6       30.44F WCI   3
WHEATON        CLOUDY     3  -2  78 W8        30.60F WCI -10
BRAINERD       CLOUDY    11   6  81 NW7       30.50S WCI   0
HIBBING        FLURRIES  10   5  80 NW8       30.45R WCI  -2
ALEXANDRIA     CLOUDY     5   2  87 NW9       30.52F WCI  -9
SAINT CLOUD    CLOUDY    11   8  88 W7        30.53S WCI   0
MINNEAPOLIS    CLOUDY    15   9  76 NW7       30.54S WCI   5
$$

  *****  WEATHER ACROSS SOUTH DAKOTA  *****

CITY           SKY/WX    TMP DP  RH WIND       PRES   REMARKS
SIOUX FALLS    CLEAR      0  -3  87 W5        30.57F WCI -10
BROOKINGS      CLEAR     -3  -7  82 NW5       30.54F WCI -13
WATERTOWN      CLEAR     -4  -8  83 NW7       30.52F WCI -18
HURON          CLOUDY    -5  -8  87 CALM      30.60F
SISSETON         N/A     -2  -8  76 NW7       30.57F WCI -15
ABERDEEN       CLOUDY    -7 -11  83 W3        30.59F
MITCHELL       CLEAR     -2  -5  87 W3        30.62F
PIERRE         CLOUDY     2  -2  83 E7        30.53F WCI -11
MOBRIDGE       CLOUDY    -3  -8  79 N5        30.52F WCI -13
RAPID CITY     CLOUDY     0  -5  79 NE6       30.31F WCI -12
$$

  *****  SOME WEATHER IN NEARBY STATES *****

CITY           SKY/WX    TMP DP  RH WIND       PRES   REMARKS
GLASGOW MT     CLOUDY    -2  -8  76 E10       30.49S WCI -19
GREAT FALLS MT CLOUDY    -3  -8  79 N7        30.29F WCI -16
CHEYENNE WY    CLOUDY    11   4  73 E9        30.00F WCI  -2
SCOTTSBLUFF NE CLOUDY    12   5  73 SE14      30.15F WCI  -3
OMAHA NE       CLEAR      9   2  73 N5        30.65S WCI   1
DES MOINES IA  CLEAR     13   6  74 NW12      30.60F WCI  -1
DAVENPORT IA   CLOUDY    18  11  74 NW13      30.54S WCI   5
CHICAGO IL     CLOUDY    21  16  81 W8        30.45R WCI  11
EAU CLAIRE WI  CLEAR     13   9  84 NW8       30.49S WCI   2
LA CROSSE WI   CLOUDY    23  12  62 N13       30.51S WCI  11
$$

  *****  SOME NATIONAL WEATHER *****

CITY           SKY/WX    TMP DP  RH WIND       PRES   REMARKS
LA GUARDIA NY  PTCLDY    34  18  52 W15G21    30.04S WCI  24
RALEIGH NC     CLEAR     33  14  45 NW5       30.29R
ATLANTA GA     CLEAR     29  16  58 NW12      30.38S WCI  19
NEW ORLEANS LA CLOUDY    42  33  70 N10G22    30.47F
OKLAHOMA CITY  PTCLDY    21  10  62 E7        30.63F WCI  12
ALBUQUERQUE NM CLOUDY    27  18  69 N3        30.36S
SALT LAKE CITY FLURRIES  29  24  82 W10       30.20R WCI  20
LOS ANGELES CA MOCLDY    55  52  89 E3        30.26S
BOISE ID       CLOUDY    25  23  92 CALM      30.14R
SEATTLE WA     FLURRIES  32  28  85 SE5       29.96S
$$

*** WEATHER ACROSS MANITOBA...SASKATCHEWAN AND ONTARIO ***
                ***ONTARIO***

CITY           SKY/WX    TMP DP  RH WIND       PRES   REMARKS
GERALDTON      FLURRIES   9   5  85 NW7       30.31R WCI  -3
THUNDER BAY    FLURRIES  14   5  67 NW9       30.41S WCI   2
SIOUX LOOKOUT  FLURRIES   7   5  92 VRB2      30.39S
TORONTO        PTCLDY    21  12  68 NW9       30.13R WCI  11
BIG TROUT LK   FLURRIES   0  -6  78 NW13      30.41R WCI -18
PICKLE LAKE    NOT AVBL
DRYDEN         LGT SNOW   7   5  92 W5        30.40S WCI  -2
KENORA         FLURRIES   5   1  85 W9        30.44S WCI  -9
$$
                *** MANITOBA***

CITY           SKY/WX    TMP DP  RH WIND       PRES   REMARKS
BRANDON        CLEAR    -15 -20  76 W12       30.54F WCI -36
DAUPHIN        FLURRIES  -6 -13  71 W7        30.60R WCI -20
ISLAND LAKE    NOT AVBL
PILOT MOUND      N/A     -9 -13  84 NW9         N/A  WCI -27
THE PAS        FLURRIES  -2  -9  71 NW8       30.62F WCI -17
THOMPSON       PTCLDY   -22 -29  69 CALM      30.59F
WINNIPEG       MOCLDY     0  -8  71 NW15      30.58S WCI -20
LYNN LAKE      CLOUDY   -15 -18  84 NW6       30.62R WCI -29
CHURCHILL      MOCLDY     0  -4  85 NW18      30.52S WCI -22
GILLAM         CLEAR    -18 -24  76 NW7       30.56F WCI -35
$$
                ***SASKATCHEWAN***

CITY           SKY/WX    TMP DP  RH WIND       PRES   REMARKS
ESTEVAN        PTCLDY   -20 -26  76 W8        30.54S WCI -39
KINDERSLEY     CLOUDY    -8 -13  77 NE5       30.54S WCI -19
LLOYDMINSTER   CLOUDY   -17 -20  83 NW2       30.57S
PRINCE ALBERT  CRYSTALS -18 -24  76 W5        30.65S WCI -31
REGINA         CLEAR    -15 -20  76 NW5       30.56S WCI -27
YORKTON        CLOUDY    -9 -15  77 NW9       30.55S WCI -27
N. BATTLEFORD  CLEAR    -17 -24  70 N5        30.64S WCI -29
LA RONGE       CLEAR    -22 -27  76 W2        30.68S
SASKATOON      CRYSTALS -15 -20  76 NW5       30.63F WCI -27
SWIFT CURRENT  FLURRIES  -6  -8  92 N7        30.46S WCI -20
$$
NOTE: THESE ARE AUTOMATED STATIONS WITH LIMITED QUALITY CONTROL
      "FAIR" INDICATES FEW OR NO CLOUDS BELOW 12,000 FEET WITH NO
      SIGNIFICANT WEATHER AND/OR OBSTRUCTIONS TO VISIBILITY.
      SKY/WX - SKY CONDITION AND SIGNIFICANT WEATHER.
      TMP - AIR TEMPERATURE.    DP   - DEWPOINT TEMPERATURE.
      RH  - RELATIVE HUMIDITY.  PRES - PRESSURE.
      HX  - HEAT INDEX.         WCI  - WIND CHILL INDEX.
$




USA.gov is the U.S. government's official web portal to all federal, state and local government web resources and services.